{"data":{"norad_id":65169,"epoch":"2026-09-21T22:20:33.839808Z","epoch_age_seconds":41462,"freshness":"FRESH","line1":"1 65169U 25174F   26264.93094722  .00000024  00000+0  22570-4 0  9997","line2":"2 65169  86.4988 219.3601 0002414  74.7909 285.3492 13.24396177 53599","mean_motion":13.24396177,"eccentricity":0.0002414,"inclination_deg":86.4988,"raan_deg":219.3601,"arg_perigee_deg":74.7909,"mean_anomaly_deg":285.3492,"bstar":2.257e-5,"rev_number":5359,"period_min":108.72879467697,"perigee_km":1166.1530607053,"apogee_km":1169.7963234303,"semimajor_km":7546.1116920678,"source":"CELESTRAK","updated_at":"2026-09-22T09:00:30.164507Z"}}